Regional Weather Roundup
Issued by NWS

Home | Current Version | Previous Version | Text Only | Print | Product List | Glossary Off
Versions: 1 2 3 4 5 6 7 8 9 10 11 12 13 14 15 16 17 18 19 20 21 22 23 24 25 26 27 28 29 30 31 32 33 34 35 36 37 38 39 40 41 42 43 44 45 46 47 48 49 50

000
ASUS43 KMKX 151911
RWRWI

WISCONSIN REGIONAL WEATHER ROUNDUP
NATIONAL WEATHER SERVICE MILWAUKEE/SULLIVAN WI
200 PM CDT MON SEP 15 2014

NOTE: "FAIR" INDICATES FEW OR NO CLOUDS BELOW 12,000 FEET WITH NO
SIGNIFICANT WEATHER AND/OR OBSTRUCTIONS TO VISIBILITY.

WIZ001-002-006>008-014>016-023>028-152000-
NORTHWEST WISCONSIN

CITY           SKY/WX    TMP DP  RH WIND       PRES   REMARKS
SUPERIOR ARPT  CLOUDY    56  36  46 NW14      30.19S
ASHLAND        PTSUNNY   56  37  49 NW9G20    30.18R
HAYWARD        PTSUNNY   58  33  39 NW8G22    30.18S
SIREN          CLOUDY    56  34  43 NW10G16   30.20S
RICE LAKE      CLOUDY    60  36  41 NW12      30.20S
LADYSMITH      MOSUNNY   58  38  45 NW9       30.18S
EAU CLAIRE     MOSUNNY   61  40  45 VRB7      30.17S
MENOMONIE      CLOUDY    60  39  46 NW9       30.19S
NEW RICHMOND   CLOUDY    60  36  40 N9        30.20F
OSCEOLA        CLOUDY    58  38  48 NW9       30.23S
$$

WIZ003>005-009-010-017-018-152000-
NORTH CENTRAL WISCONSIN

CITY           SKY/WX    TMP DP  RH WIND       PRES   REMARKS
WOODRUFF       MOSUNNY   57  40  54 NW10G16   30.13S
RHINELANDER    PTSUNNY   55  41  59 NW8G17    30.13S
EAGLE RIVER    MOSUNNY   57  39  50 NW9G16    30.12S
LAND O LAKES   PTSUNNY   55  41  59 W6        30.13S
PHILLIPS       MOSUNNY   57  37  46 NW7       30.14S
TOMAHAWK       CLOUDY    55  42  61 NW3       30.14S
MEDFORD        CLOUDY    55  42  60 NW7       30.14S
MERRILL        CLOUDY    57  43  57 NW7       30.12F
$$

WIZ029-030-035-036-043>047-152000-
CENTRAL WISCONSIN

CITY           SKY/WX    TMP DP  RH WIND       PRES   REMARKS
WAUSAU         PTSUNNY   60  41  49 W9        30.11F
MOSINEE        MOSUNNY   57  45  62 W6        30.14F
MARSHFIELD     PTSUNNY   60  43  53 VRB5      30.14S
STEVENS POINT  CLOUDY    56  44  64 NW7       30.14S
WAUPACA        DRIZZLE   57  53  84 SW5       30.13F
WAUTOMA        PTSUNNY   55  52  90 W7        30.16S
WISC RAPIDS    LGT RAIN  54  50  86 SW8       30.16S
CAMP DOUGLAS   PTSUNNY   54  52  94 NW12      30.17S
$$

WIZ011>013-019>022-031-037>040-048>050-152000-
NORTHEAST WISCONSIN

CITY           SKY/WX    TMP DP  RH WIND       PRES   REMARKS
ANTIGO         PTSUNNY   55  42  60 N8        30.12F
STURGEON BAY   CLOUDY    57  45  62 W8        30.11S
GREEN BAY      CLOUDY    56  49  77 SW6       30.12F
MANITOWOC      LGT RAIN  55  52  89 NW5       30.13S
APPLETON       DRIZZLE   54  46  76 W6        30.13F
CLINTONVILLE   CLOUDY    57  46  67 W7        30.12F
OSHKOSH        LGT RAIN  55  50  83 NW6       30.13S
$$

WIZ032>034-041-042-053>061-152000-
SOUTHWEST WISCONSIN

CITY           SKY/WX    TMP DP  RH WIND       PRES   REMARKS
LA CROSSE      MOSUNNY   59  47  64 NW6       30.18S
SPARTA         CLOUDY    53  46  77 W5        30.18F
VIROQUA        CLOUDY    55  46  72 N6        30.17S
BOSCOBEL       CLOUDY    57  51  80 N8        30.17R
PRAIRIE DU CHI CLOUDY    55  48  78 N8        30.16F
PLATTEVILLE    CLOUDY    52  50  93 CALM      30.14F
$$

WIZ056-057-062-063-064-067-068-152000-
SOUTH CENTRAL WISCONSIN

CITY           SKY/WX    TMP DP  RH WIND       PRES   REMARKS
BARABOO/DELLS  DRIZZLE   52  48  88 N6        30.15S
LONE ROCK      LGT RAIN  58  50  75 N7        30.16F
WATERTOWN      LGT RAIN  51  51  98 N7        30.13F
MADISON        LGT RAIN  53  51  93 N5        30.15S FOG
MIDDLETON      CLOUDY    54  52  94 N7        30.14F
MONROE         DRIZZLE   54  50  87 N18       30.13R
JANESVILLE     CLOUDY    57  48  72 N12G17    30.11R
$$

WIZ051-052-058>065-066-070>072-152000-
SOUTHEAST WISCONSIN

CITY           SKY/WX    TMP DP  RH WIND       PRES   REMARKS
MILWAUKEE      CLOUDY    57  53  86 N8        30.10F
WAUKESHA       LGT RAIN  52  50  93 NW8       30.13S FOG
MILWAUKEE/TIMM DRIZZLE   54  50  87 N6        30.13R FOG
RACINE         CLOUDY    59  51  75 N6        30.11S
BURLINGTON     LGT RAIN  57  51  80 N8        30.10S
KENOSHA        CLOUDY    60  51  72 SE5       30.10S
FOND DU LAC    LGT RAIN  53  49  86 MISG      30.14S
SHEBOYGAN      LGT RAIN  54  51  90 N5        30.12F
WEST BEND      HVY RAIN  52  50  93 N6        30.13R
JUNEAU         RAIN      51  50  95 N5        30.15S
$$

LSZ147-162-152000-
LAKE SUPERIOR

STATION/POSITION TIME  TEMP    WIND        PRES    WAVE
                       AIR SEA DIR/SP/G            HT/PER
                 (UTC) (F)     (DEG/KT/KT) (MB)    (FT/S)
W MID LAKE BUOY  1850   49 48  250/ 12/ 12 1020.3S   1/ 3
DEVILS ISLAND    1900   52     240/ 10/ 11 1021.4S
PORT WING        1840   54     300/  9/ 11 1022.0R
SAXON HARBOR     1800   55     320/ 14/ 18 1021.3S
$$

LMZ867-665-643>646-152000-
LAKE MICHIGAN

STATION/POSITION TIME  TEMP    WIND        PRES    WAVE
                       AIR SEA DIR/SP/G            HT/PER
                 (UTC) (F)     (DEG/KT/KT) (MB)    (FT/S)
N MID LAKE BUOY  1850   55 60  240/  8/  8 1019.4F   1/ 5
NORTHPORT PIER   1800   57     330/  2/  3 1019.6S
KEWAUNEE LAKESHO 1800   55     260/  5/  6 1019.0F
SHEBOYGAN LAKESH 1900   53 49  350/  3/  4 1020.5S
PORT WASHINGTON  1800   56     350/  3/  5 1020.3F
ATWATER BUOY     1900   56     350/ 12/ 14 1020.6R
MILWAUKEE LAKESH 1800   56     340/  4/  6   N/A
S MID LAKE BUOY  1850   61 65     CALM     1019.0F   1/ 3
KENOSHA   LAKESH 1900   56     360/  4/  5 1019.0S
$$

TC  - TEMPERATURE IN CELSIUS
VSB - VISIBILITY IN STATUTE MILES
WCI - WIND CHILL INDEX
HX  - HEAT INDEX



USA.gov is the U.S. government's official web portal to all federal, state and local government web resources and services.